RH
28 30 29 30 30 27 21 18 15 13 12 12 16 19 21 21 19 18 18 19 22 23 21 18 13 7 5 6 5 5 4 4 4 3 3 3 4 4 4 5 5 5 5
28 28 29 30 28 25 19 16 14 14 14 13 11 11 17 20 20 20 19 17 16 16 18 18 13 9 6 6 5 5 5 5 5 5 4 5 5 5 5 5 5 5 6
26 26 28 27 23 20 19 18 18 19 16 11 6 8 9 12 20 22 21 20 19 19 21 20 15 12 10 8 8 8 7 7 6 6 6 6 6 6 6 6 6 6 6
27 29 28 27 30 32 33 30 28 25 18 7 5 5 6 7 11 18 21 21 19 20 20 20 17 13 13 13 13 12 12 12 11 11 10 8 6 7 6 6 6 6 6
31 30 31 36 36 37 34 34 31 22 12 5 5 5 4 5 5 10 19 24 22 19 19 18 17 16 15 15 14 13 12 12 12 12 12 12 10 8 7 6 5 5 5
34 35 35 36 38 39 33 31 23 13 9 8 8 5 4 4 4 6 16 24 24 22 22 21 20 17 12 8 7 6 5 5 6 7 10 12 12 12 10 8 7 5 5
38 36 38 39 41 40 36 33 24 16 15 12 8 4 4 4 4 4 13 23 26 24 20 17 15 12 9 8 7 7 6 5 3 3 5 8 13 13 12 10 8 7 6
39 38 37 40 42 40 37 28 19 16 24 15 8 4 5 6 6 5 12 23 27 25 20 15 12 11 10 10 9 8 7 6 5 3 3 6 10 14 13 12 9 7 6
40 40 37 44 43 40 37 28 19 24 24 14 9 5 5 7 7 7 19 29 28 21 15 12 11 10 8 7 7 6 6 5 4 3 3 6 11 17 13 10 9 7 6
42 40 40 46 43 40 38 33 29 35 23 14 10 5 6 8 6 9 19 29 26 17 13 11 8 7 6 6 6 6 5 4 3 4 4 5 9 20 17 11 10 9 7
43 41 38 43 42 41 39 31 31 38 22 12 9 4 8 8 9 19 25 28 22 14 13 11 9 7 5 4 6 6 9 13 14 16 18 21 22 20 17 13 11 10 7
43 40 38 40 40 38 37 28 35 37 19 12 5 4 11 17 15 20 26 28 20 17 14 11 6 6 5 6 8 8 15 12 15 16 16 19 15 12 12 9 8 7 6
43 40 37 37 38 34 27 33 39 34 16 8 5 5 12 19 19 18 21 26 19 15 10 7 6 6 6 8 6 6 14 10 7 7 8 7 8 8 7 6 5 5 5
40 38 36 36 34 28 28 40 38 24 15 7 5 9 17 23 22 22 26 24 15 10 7 5 8 11 10 8 4 7 11 9 8 6 5 5 5 5 5 5 7 12 16
32 33 33 32 23 28 40 39 32 18 14 6 5 11 23 24 21 26 23 15 11 7 4 7 13 16 12 6 3 4 8 7 6 6 5 6 6 10 14 14 13 14 22
25 27 22 21 34 43 41 32 20 17 11 6 6 6 13 22 24 23 17 12 9 4 6 8 15 19 13 5 3 4 4 4 5 9 14 16 17 15 13 13 15 22 26
17 18 30 45 44 38 30 21 18 13 8 6 7 7 7 20 23 23 16 11 7 5 8 12 18 20 14 6 4 3 4 6 8 12 14 15 15 14 12 11 11 16 19
41 50 48 43 34 26 21 18 12 10 8 7 7 7 8 15 24 23 14 12 5 6 12 20 21 22 16 9 5 5 6 6 6 7 8 10 11 12 14 12 9 12 15
50 44 37 30 25 23 20 13 12 10 8 8 8 8 8 16 25 21 14 10 5 8 16 23 23 21 21 11 6 5 6 6 5 5 5 5 5 7 9 13 10 10 14
41 36 30 25 24 23 14 12 12 9 8 9 9 9 10 19 26 19 14 9 5 8 17 24 24 18 16 19 19 13 7 6 6 8 11 14 16 16 15 15 11 9 12
37 33 30 27 26 18 12 11 10 9 9 13 12 11 17 27 24 17 13 8 6 9 15 23 25 22 19 16 15 16 17 18 17 16 14 15 15 16 16 16 16 8 10
38 36 30 28 24 15 12 10 9 13 18 16 15 22 34 30 22 17 11 8 6 10 14 22 24 22 22 20 19 18 18 16 16 16 17 16 16 15 15 16 18 19 10
37 32 32 29 21 14 11 10 19 24 21 29 34 40 39 29 20 15 10 8 6 10 13 21 25 23 24 24 23 20 20 20 18 17 17 17 19 20 20 20 18 20 24
39 39 34 26 17 13 12 24 30 26 35 41 41 37 30 23 19 14 10 7 8 11 12 20 24 26 25 24 25 26 24 24 22 22 22 20 20 20 22 22 23 24 24
41 34 24 19 15 15 28 32 29 38 40 33 36 35 27 21 15 11 9 8 11 11 12 20 27 29 29 26 22 22 22 23 25 28 29 32 32 32 31 32 32 31 31
26 21 18 17 22 33 32 32 43 40 34 33 34 29 20 14 12 10 10 11 11 12 19 27 28 28 26 26 26 26 28 29 30 33 34 35 36 38 39 40 40 42 41
Wind_Speed
10 8 6 6 4 5 8 9 12 15 16 17 17 16 15 15 16 16 16 16 16 15 16 18 17 15 15 15 16 16 15 15 15 15 16 17 17 17 16 15 15 15 14
11 7 6 5 4 6 8 11 13 16 19 21 21 19 17 16 16 17 18 18 17 17 18 17 16 16 16 17 17 17 17 17 18 19 18 17 18 19 19 19 18 18 18
9 6 4 4 6 8 11 13 16 19 22 26 25 24 22 22 20 19 19 19 19 19 18 18 17 17 17 18 20 21 21 22 22 22 22 21 22 22 23 23 22 22 22
8 5 4 4 7 11 14 17 21 24 29 28 27 27 26 24 24 22 21 21 20 20 18 17 17 18 19 20 22 23 24 25 25 26 28 27 26 27 28 27 27 27 27
8 5 3 5 8 13 17 19 24 28 29 26 27 29 29 27 25 24 22 22 21 20 20 20 19 19 20 22 23 25 26 27 28 30 31 31 30 31 31 31 31 31 31
8 4 2 4 7 12 17 20 25 28 28 27 31 31 30 29 27 26 24 23 23 23 22 21 21 21 22 23 25 26 28 30 33 34 35 34 35 33 33 32 32 31 32
8 4 1 4 8 12 17 21 27 28 30 31 33 33 31 31 28 27 26 24 23 23 23 23 23 24 25 27 28 30 32 33 34 37 38 38 38 37 36 35 34 33 32
10 6 4 5 8 13 18 23 27 29 34 34 34 35 35 34 31 28 25 24 23 24 25 26 26 27 29 31 33 34 35 36 37 39 40 40 41 40 38 37 35 32 31
12 9 7 7 10 14 19 23 27 32 35 35 36 36 38 37 34 29 24 25 24 24 25 26 29 31 34 36 36 36 36 38 38 39 40 41 41 39 37 34 31 30 29
14 12 10 10 12 15 20 25 29 33 36 37 39 37 39 36 32 26 25 27 28 27 27 29 32 36 38 40 42 39 35 32 31 31 31 32 34 35 31 29 27 26 27
17 15 13 14 16 19 22 25 28 34 37 37 39 37 38 32 29 27 27 28 28 28 30 33 36 38 39 39 36 30 23 21 21 21 21 21 22 24 24 23 24 25 26
20 19 18 18 19 22 26 26 30 35 37 39 38 37 33 31 27 27 28 28 29 31 33 36 36 37 36 35 33 26 21 22 22 23 23 24 23 22 21 22 24 25 26
24 22 21 22 22 22 25 27 32 36 37 38 36 36 32 32 32 31 31 31 31 33 36 37 34 33 29 30 31 23 21 22 21 20 19 19 19 20 20 20 21 23 24
28 26 26 25 26 26 26 28 33 36 38 36 35 35 31 31 32 31 29 29 32 37 40 36 33 31 28 28 29 18 18 20 21 19 17 16 16 16 18 19 20 20 19
29 28 27 28 26 25 28 32 35 36 39 35 34 34 32 33 34 31 29 31 35 40 35 31 32 31 27 26 21 15 18 20 20 19 18 16 15 14 14 16 16 13 13
27 28 26 25 25 27 31 35 36 39 39 35 35 35 34 34 35 31 31 34 37 34 29 31 32 30 26 25 18 15 15 16 15 15 15 14 13 14 14 13 12 13 15
25 25 24 25 27 30 34 35 39 41 36 36 37 37 35 34 35 32 32 35 37 31 32 32 29 27 25 22 18 13 10 12 13 12 14 15 15 16 16 15 15 14 15
23 24 25 28 30 31 35 38 39 37 36 36 38 38 37 34 34 31 32 36 34 31 31 29 27 25 24 20 18 13 12 13 14 14 14 15 17 18 18 17 17 14 16
25 27 28 30 32 34 38 39 38 39 38 38 40 40 38 35 33 31 33 37 31 30 29 27 24 23 23 19 16 14 14 15 15 16 18 19 20 20 19 17 17 16 17
29 30 29 32 34 38 39 40 40 41 41 41 41 41 38 35 32 31 34 36 31 29 28 26 21 20 20 19 18 16 16 16 17 18 19 19 19 19 19 18 18 16 19
32 31 32 35 38 40 41 42 43 43 43 43 41 40 37 35 33 33 34 34 31 29 28 26 22 20 20 20 17 18 18 17 17 17 17 18 18 19 19 18 18 18 22
34 34 36 39 42 43 43 45 44 44 44 42 41 38 35 35 35 35 34 34 31 29 28 27 25 22 22 22 22 20 19 20 19 17 18 19 20 20 21 21 21 20 21
37 38 39 42 45 45 46 46 44 44 43 39 36 35 36 36 37 36 35 36 33 31 29 28 28 26 25 26 26 24 23 22 22 25 25 23 23 22 22 23 23 22 23
39 42 44 46 48 47 47 45 44 43 39 35 35 37 38 38 38 38 36 36 34 33 32 31 29 28 29 30 31 29 28 29 29 28 29 30 29 27 26 26 26 26 26
45 47 49 49 48 47 45 44 43 38 36 38 39 39 39 40 39 39 37 36 35 35 35 34 33 32 32 33 32 32 33 34 33 32 32 30 29 31 31 31 31 30 29
49 50 48 48 47 44 42 42 39 39 39 40 40 40 41 40 40 40 37 37 37 36 36 38 37 37 37 36 35 35 36 37 37 36 35 34 35 34 34 34 34 34 34
Wind_Direction
143 129 111 87 68 57 49 37 33 29 23 17 11 358 347 338 333 333 325 321 317 315 315 318 315 313 313 317 319 318 315 311 310 308 308 307 305 303 301 298 299 300 298
143 131 108 90 57 37 27 19 18 14 10 6 3 1 357 349 342 336 329 325 322 318 314 312 308 308 310 312 309 309 312 309 307 307 304 300 298 298 295 291 289 288 289
146 127 94 66 39 21 12 6 2 2 1 358 356 354 350 352 348 344 339 331 324 316 311 309 308 304 302 303 303 305 306 304 302 302 299 297 293 293 289 289 288 284 282
149 127 102 66 23 9 2 358 357 359 358 357 0 0 354 346 344 344 340 336 329 321 315 311 307 306 304 303 304 304 305 303 301 299 295 293 288 285 284 285 284 284 284
155 133 110 24 7 359 354 353 354 354 352 353 356 358 357 349 341 338 335 332 329 326 321 318 316 312 307 305 304 304 302 300 296 292 288 287 284 282 282 282 281 281 280
164 148 67 10 355 351 349 347 350 350 347 348 352 350 348 349 343 339 334 330 327 324 319 315 310 308 307 305 303 303 301 296 292 288 284 282 280 278 278 277 277 277 277
189 181 253 334 334 342 345 345 345 343 345 348 349 348 345 345 341 338 337 332 326 321 317 315 311 308 305 304 305 304 303 301 295 288 281 279 276 276 274 273 273 274 274
204 219 254 306 323 333 338 340 340 339 344 344 344 346 344 342 337 333 337 334 326 318 314 312 310 309 309 309 307 306 304 303 299 291 284 277 273 272 273 273 273 273 274
218 234 256 286 309 322 329 332 336 339 339 338 340 341 341 337 334 331 337 331 322 316 313 314 314 314 312 311 307 303 302 301 294 287 281 275 272 272 273 275 277 278 278
230 241 255 279 298 312 321 324 329 332 333 333 336 337 337 336 335 334 334 330 323 318 319 320 318 318 317 315 313 310 310 305 300 297 293 288 279 274 276 275 278 279 277
236 246 257 274 290 305 312 318 325 327 329 329 331 334 336 338 337 336 331 327 322 320 321 321 321 319 321 319 316 313 315 327 332 330 322 308 290 276 272 274 275 275 274
235 251 264 274 284 301 310 314 318 322 324 326 327 330 332 334 331 327 327 326 322 322 320 318 318 320 323 325 319 313 320 323 324 320 316 306 294 278 268 265 268 272 277
243 252 257 268 278 288 295 306 313 318 320 323 325 327 326 329 325 320 322 324 321 318 315 316 316 317 320 320 320 309 313 321 326 322 314 313 306 298 290 284 281 280 280
245 252 260 268 278 286 294 303 307 312 316 319 323 328 325 332 329 323 319 320 316 316 318 318 316 316 315 320 323 304 311 315 321 323 320 315 307 301 295 289 287 287 288
246 251 259 268 274 284 293 299 304 307 312 315 321 325 325 329 331 329 324 319 319 321 325 326 325 325 319 324 331 315 308 311 312 317 317 313 309 307 306 305 302 300 299
244 253 257 266 276 285 292 297 301 305 307 309 316 321 320 322 327 325 319 318 322 323 326 327 326 329 324 329 331 312 319 322 331 335 331 334 330 326 323 320 316 311 307
242 250 259 268 277 286 291 297 302 304 302 306 313 316 317 317 322 317 314 318 322 318 325 326 324 327 327 328 326 313 322 328 338 342 335 331 328 326 326 323 319 311 314
243 252 261 270 278 284 291 298 301 300 301 306 310 314 315 313 316 312 311 315 318 318 325 326 325 327 328 323 326 313 316 320 326 331 329 322 319 319 322 323 316 306 310
247 254 262 270 278 286 294 297 297 299 302 306 307 310 312 309 309 308 310 313 312 315 320 322 325 327 328 321 317 315 310 317 323 321 318 319 316 318 317 318 317 304 305
250 256 264 271 280 290 294 296 295 299 302 304 305 305 306 303 302 303 305 311 307 310 314 316 316 321 324 326 324 317 310 309 309 314 316 317 320 324 322 320 317 303 300
252 260 267 275 283 290 293 294 295 298 300 302 302 301 303 298 297 298 302 306 304 307 308 310 308 309 314 316 319 322 321 318 318 318 321 323 323 323 325 318 320 314 303
256 264 271 278 286 290 291 291 294 297 299 300 300 300 296 296 297 297 301 304 301 303 303 304 301 302 306 307 310 311 311 312 311 312 316 319 319 320 321 321 320 319 307
258 264 272 279 284 287 287 290 294 296 299 299 295 292 291 292 294 297 300 301 297 297 297 298 296 296 302 305 304 304 304 304 303 304 306 307 308 311 314 316 316 316 313
260 267 273 278 283 284 286 292 293 294 295 291 290 291 294 295 296 296 298 300 294 295 294 296 294 295 298 302 302 301 301 302 303 301 301 303 303 303 305 307 308 308 308
260 267 272 277 280 283 287 288 289 289 289 291 292 293 292 293 295 296 298 294 293 296 295 296 293 293 296 298 299 300 300 300 299 299 300 300 301 303 305 305 305 303 303
264 268 272 275 279 283 283 284 285 286 288 289 290 290 290 292 293 295 294 292 293 294 295 294 292 291 293 294 296 296 296 296 295 295 296 297 298 300 300 300 299 300 300